Location: Northcutt
(34.7304°N, 84.4305°W)
Time: 10:51:16
(UTC+00:00)

A-11 Canister half - Pass Details

Date: 11 October 2022
Orbit: 1524 x 1685 km, 47.3° (Epoch: 30 November)

Event Time Altitude Azimuth Distance (km) Brightness Sun altitude
Rises 22:27:08 0° 297° (WNW) 4,674 12.4 7.4°
Reaches altitude 10° 22:30:25 10° 304° (NW) 3,695 11.7 6.8°
Maximum altitude 22:39:10 43° 14° (NNE) 2,067 9.6 5.0°
Drops below altitude 10° 22:48:04 10° 84° (E) 3,770 10.4 3.2°
Sets 22:51:27 0° 91° (E) 4,777 10.9 2.5°
